User: anonymous   Login
Location: Muenchen
(48.1800°N, 11.5800°E)
Time: 02:39:03
(UTC+01:00)
Language:

Iridium 73 - Orbit

View from above orbital plane
View from above orbital plane
View from above satellite
View from above satellite

Ground track
Ground track

The orbit data is extracted from the following two-line orbital elements,

1 25344U 98032C   17050.60952768  .00000132  00000-0  29316-4 0  9997
2 25344  86.4394 252.6053 0002875  91.4618 268.6915 14.49010694990528
Epoch (UTC): 19 February 2017 14:37:43
Eccentricity: 0.0002875
inclination: 86.4394°
perigee height: 727 km
apogee height: 731 km
right ascension of ascending node: 252.6053°
argument of perigee: 91.4618°
revolutions per day: 14.49010694
mean anomaly at epoch: 268.6915°
orbit number at epoch: 99052

The dashed part of the orbit path shows where the satellite is in the earth's shadow,  

DLR